Tracking 18785 objects as of 20-August-2017
HD Live streaming from Space Station
objects crossing your sky now

SL-3 DEB

Track SL-3 DEB now!
10-day predictions


NORAD ID: 14928
Int'l Code: 1983-075F
Perigee: 514.3 km
Apogee: 559.3 km
Inclination: 97.9 °
Period: 95.2 minutes
Semi major axis: 6907 km
RCS: 0.0341 m2 (small)
Launch date: July 24, 1983
Source: Commonwealth of Independent States (former USSR) (CIS)
Launch site: TYURATAM MISSILE AND SPACE COMPLEX (TTMTR)

Note: This is SATELLITE DEBRIS
Your satellite tracking list
Your tracking list is empty





NASA's NSSDC Master Catalog

Two Line Element Set (TLE):
1 14928U 83075F   17232.14780604  .00000279  00000-0  20184-4 0  9999
2 14928  97.8961  23.6432 0032572   2.0781  56.3178 15.12151516830046
Source of the keplerian elements: AFSPC